Date String (YYYY-MM-DD hh:mm:ss) UTC,Instrument flags,Ambient pressure (hPa),Sample flow (lpm),Bypass flow (lpm),Sample temperature (°C),Ambient temperature (°C),ASC tube jacket temperature (°C),LED temperature (°C),Box temperature (°C),Sample RH (%),Span deviation,Mass concentration (μg/m³),Mass concentration (μg/m³),Mass concentration (μg/m³)
DateTimeUTC,F1_M11,P_M11,Q1_M11,Q2_M11,T1_M11,T2_M11,T3_M11,T4_M11,T5_M11,U1_M11,ZSPAN_M11,X0_M11,X2_M11,X1_M11
2023-05-08 07:00:00,,0830.8,5.00,0.00,30.6,29.1,00.0,39.0,32.0,14.5,0000.0,0007.50,0002.56,0001.41
2023-05-08 07:01:00,,0830.7,5.00,0.00,30.6,29.1,00.0,39.0,32.1,14.6,0000.0,0007.68,0002.66,0001.46
2023-05-08 07:02:00,,0830.7,4.99,0.00,30.6,29.1,00.0,39.0,32.1,14.6,0000.0,0008.36,0002.69,0001.51
2023-05-08 07:03:00,,0830.7,5.00,0.00,30.6,29.1,00.0,39.0,32.1,14.7,0000.0,0008.63,0002.80,0001.55
2023-05-08 07:04:00,,0830.7,5.02,0.00,30.7,29.1,00.0,39.0,32.1,15.0,0000.0,0008.63,0002.92,0001.60
2023-05-08 07:05:00,,0830.7,4.99,0.00,30.7,29.1,00.0,39.0,32.1,15.1,0000.0,0008.70,0003.00,0001.67
2023-05-08 07:06:00,,0830.7,5.00,0.00,30.7,29.1,00.0,39.0,32.1,15.2,0000.0,0008.80,0003.07,0001.75
2023-05-08 07:07:00,,0830.7,4.99,0.00,30.7,29.1,00.0,39.0,32.1,15.2,0000.0,0008.59,0003.10,0001.82
2023-05-08 07:08:00,,0830.7,5.00,0.00,30.7,29.1,00.0,39.0,32.1,15.3,0000.0,0008.05,0003.09,0001.85
2023-05-08 07:09:00,,0830.7,5.00,0.00,30.7,29.1,00.0,39.0,32.1,15.4,0000.0,0008.48,0003.12,0001.89
2023-05-08 07:10:00,,0830.7,5.00,0.00,30.7,29.1,00.0,39.0,32.1,15.4,0000.0,0008.62,0003.14,0001.94
2023-05-08 07:11:00,,0830.7,5.00,0.00,30.6,29.1,00.0,39.0,32.1,15.5,0000.0,0008.85,0003.20,0001.99
2023-05-08 07:12:00,,0830.6,5.00,0.00,30.6,29.1,00.0,39.0,32.1,15.4,0000.0,0009.06,0003.24,0002.03
2023-05-08 07:13:00,,0830.7,5.01,0.00,30.6,29.1,00.0,39.0,32.1,15.3,0000.0,0008.96,0003.30,0002.05
2023-05-08 07:14:00,,0830.7,5.01,0.00,30.6,29.1,00.0,39.0,32.1,15.1,0000.0,0008.45,0003.31,0002.06
2023-05-08 07:15:00,,0830.6,5.01,0.00,30.6,29.1,00.0,39.0,32.1,15.1,0000.0,0009.78,0003.35,0002.09
2023-05-08 07:16:00,,0830.6,4.99,0.00,30.6,29.0,00.0,39.0,32.1,15.2,0000.0,0010.64,0003.36,0002.07
2023-05-08 07:17:00,,0830.7,5.00,0.00,30.6,29.0,00.0,39.0,32.1,15.3,0000.0,0010.99,0003.40,0002.08
2023-05-08 07:18:00,,0830.6,4.99,0.00,30.6,29.0,00.0,39.0,32.1,15.4,0000.0,0011.02,0003.40,0002.08
2023-05-08 07:19:00,,0830.7,5.00,0.00,30.6,29.0,00.0,39.0,32.1,15.3,0000.0,0011.26,0003.43,0002.08
2023-05-08 07:20:00,,0830.7,5.01,0.00,30.6,29.0,00.0,39.0,32.1,15.3,0000.0,0011.32,0003.46,0002.09
2023-05-08 07:21:00,,0830.7,4.99,0.00,30.6,29.0,00.0,39.0,32.1,15.4,0000.0,0011.76,0003.47,0002.08
2023-05-08 07:22:00,,0830.7,5.00,0.00,30.6,29.0,00.0,39.0,32.1,15.4,0000.0,0011.65,0003.43,0002.06
2023-05-08 07:23:00,,0830.7,4.99,0.00,30.6,29.0,00.0,39.0,32.1,15.4,0000.0,0011.39,0003.42,0002.05
2023-05-08 07:24:00,,0830.7,5.00,0.00,30.6,29.0,00.0,39.0,32.1,15.4,0000.0,0011.32,0003.40,0002.06
2023-05-08 07:25:00,,0830.6,5.01,0.00,30.6,29.0,00.0,39.0,32.1,15.4,0000.0,0011.41,0003.40,0002.07
2023-05-08 07:26:00,,0830.7,5.01,0.00,30.6,29.0,00.0,39.0,32.0,15.3,0000.0,0010.40,0003.38,0002.08
2023-05-08 07:27:00,,0830.7,5.00,0.00,30.6,29.0,00.0,39.0,32.0,15.3,0000.0,0009.42,0003.36,0002.10
2023-05-08 07:28:00,,0830.7,5.00,0.00,30.6,29.0,00.0,39.0,32.0,15.3,0000.0,0009.47,0003.32,0002.10
2023-05-08 07:29:00,,0830.7,5.00,0.00,30.6,29.0,00.0,39.0,32.0,15.4,0000.0,0009.58,0003.30,0002.09
2023-05-08 07:30:00,,0830.7,5.00,0.00,30.6,29.0,00.0,39.0,32.0,15.6,0000.0,0009.67,0003.34,0002.10
2023-05-08 07:31:00,,0830.7,5.00,0.00,30.6,29.0,00.0,39.0,32.1,15.6,0000.0,0009.37,0003.36,0002.12
2023-05-08 07:32:00,,0830.7,5.00,0.00,30.6,29.0,00.0,39.0,32.1,15.7,0000.0,0008.67,0003.35,0002.14
2023-05-08 07:33:00,,0830.7,5.00,0.00,30.6,29.1,00.0,39.0,32.0,15.7,0000.0,0008.60,0003.36,0002.16
2023-05-08 07:34:00,,0830.7,5.01,0.00,30.7,29.1,00.0,39.0,32.0,15.5,0000.0,0008.83,0003.36,0002.18
2023-05-08 07:35:00,,0830.7,5.00,0.00,30.7,29.1,00.0,39.0,32.0,15.2,0000.0,0009.08,0003.34,0002.17
2023-05-08 07:36:00,,0830.7,4.99,0.00,30.7,29.1,00.0,39.0,32.0,15.4,0000.0,0009.98,0003.34,0002.18
2023-05-08 07:37:00,,0830.7,5.00,0.00,30.7,29.1,00.0,39.0,32.0,15.7,0000.0,0010.50,0003.40,0002.22
2023-05-08 07:38:00,,0830.7,5.00,0.00,30.7,29.1,00.0,39.0,32.1,15.9,0000.0,0010.75,0003.44,0002.26
2023-05-08 07:39:00,,0830.7,4.99,0.00,30.7,29.1,00.0,39.0,32.1,15.9,0000.0,0010.67,0003.51,0002.30
2023-05-08 07:40:00,,0830.6,5.00,0.00,30.7,29.1,00.0,39.1,32.1,15.9,0000.0,0010.61,0003.56,0002.33
2023-05-08 07:41:00,,0830.7,5.01,0.00,30.7,29.1,00.0,39.1,32.1,15.8,0000.0,0010.45,0003.57,0002.36
2023-05-08 07:42:00,,0830.7,5.00,0.00,30.7,29.1,00.0,39.0,32.1,15.8,0000.0,0010.36,0003.54,0002.38
2023-05-08 07:43:00,,0830.6,5.00,0.00,30.7,29.1,00.0,39.0,32.1,16.0,0000.0,0010.59,0003.61,0002.40
2023-05-08 07:44:00,,0830.7,4.99,0.00,30.7,29.1,00.0,39.0,32.1,15.9,0000.0,0011.06,0003.64,0002.42
2023-05-08 07:45:00,,0830.6,5.00,0.00,30.7,29.1,00.0,39.1,32.0,15.8,0000.0,0011.38,0003.65,0002.43
2023-05-08 07:46:00,,0830.6,5.00,0.00,30.7,29.1,00.0,39.1,32.0,15.9,0000.0,0011.65,0003.69,0002.45
2023-05-08 07:47:00,,0830.6,5.00,0.00,30.7,29.1,00.0,39.1,32.1,16.0,0000.0,0011.46,0003.69,0002.48
2023-05-08 07:48:00,,0830.7,5.00,0.00,30.7,29.0,00.0,39.1,32.1,16.0,0000.0,0011.15,0003.68,0002.49
2023-05-08 07:49:00,,0830.6,4.99,0.00,30.6,29.0,00.0,39.1,32.1,16.1,0000.0,0011.03,0003.69,0002.50
2023-05-08 07:50:00,,0830.7,4.99,0.00,30.6,29.0,00.0,39.1,32.1,16.0,0000.0,0011.06,0003.66,0002.50
2023-05-08 07:51:00,,0830.6,5.00,0.00,30.6,29.0,00.0,39.1,32.1,16.0,0000.0,0011.28,0003.64,0002.51
2023-05-08 07:52:00,,0830.6,5.01,0.00,30.6,29.0,00.0,39.0,32.1,16.0,0000.0,0012.22,0003.68,0002.54
2023-05-08 07:53:00,,0830.6,4.99,0.00,30.6,29.0,00.0,39.0,32.1,16.0,0000.0,0012.84,0003.72,0002.57
2023-05-08 07:54:00,,0830.6,5.00,0.00,30.6,29.0,00.0,39.0,32.1,15.9,0000.0,0013.11,0003.73,0002.57
2023-05-08 07:55:00,,0830.6,4.99,0.00,30.6,29.0,00.0,39.0,32.1,15.9,0000.0,0012.82,0003.72,0002.58
2023-05-08 07:56:00,,0830.6,5.00,0.00,30.6,29.0,00.0,39.1,32.1,15.8,0000.0,0012.02,0003.73,0002.60
2023-05-08 07:57:00,,0830.6,5.00,0.00,30.6,29.0,00.0,39.0,32.1,15.8,0000.0,0011.66,0003.71,0002.60
2023-05-08 07:58:00,,0830.5,5.00,0.00,30.6,29.0,00.0,39.0,32.1,15.6,0000.0,0011.22,0003.73,0002.60
2023-05-08 07:59:00,,0830.4,5.00,0.00,30.6,29.0,00.0,39.0,32.0,15.5,0000.0,0011.10,0003.72,0002.58
